Hamilton, OH

8:15 PM EDT on October 21, 2017 (GMT -0400)
Butler County Regional

Weather History for KHAO - November, 2012

Change the Weather History Date:

Tuesday, November 20, 2012

  Actual Average (KLUK) Record (KLUK)
Temperature  
Mean Temperature 47 °F -  
Max Temperature 61 °F 53 °F 70 °F (1985)
Min Temperature 33 °F 35 °F 19 °F (1959)
Degree Days  
Heating Degree Days 18    
Moisture  
Dew Point 37 °F    
Average Humidity 70    
Maximum Humidity 93    
Minimum Humidity 38    
Precipitation  
Precipitation 0.00 in - - ()
Sea Level Pressure  
Sea Level Pressure 30.15 in    
Wind  
Wind Speed 0 mph (East)    
Max Wind Speed 5 mph    
Max Gust Speed -    
Visibility 9 miles    
Events Rain    
Averages and records for this station are not official NWS values.
T = Trace of Precipitation, MM = Missing Value Source: NWS Daily Summary

Daily Weather History Graph

Daily Weather History Graph

Search for Another Location

Airport or City:

Trip Planner

Search our weather history database for the weather conditions in past years. The results will help you decide how hot, cold, wet, or windy it might be!

Date:

Astronomy

Nov. 20, 2012 Rise Set
Actual Time 7:27 AM EST 5:19 PM EST
Civil Twilight 6:58 AM EST 5:48 PM EST
Nautical Twilight 6:26 AM EST 6:21 PM EST
Astronomical Twilight 5:54 AM EST 6:53 PM EST
Moon 1:02 PM EST (11/20) No Moon Set
Length of Visible Light 10h 49m
Length of Day
9h 51m
Waxing Crescent, 51% of the Moon is Illuminated
Nov 20
Waxing Crescent
Nov 28
Full
Dec 6
Last Quarter
Dec 13
New
Dec 20
First Quarter

Hourly Weather History & Observations

Time (EST) Temp. Dew Point Humidity Pressure Visibility Wind Dir Wind Speed Gust Speed Precip Events Conditions
12:53 AM 39.9 °F 37.0 °F 89% 30.20 in 10.0 mi Calm Calm - N/A   Clear
1:53 AM 39.0 °F 36.0 °F 89% 30.18 in 10.0 mi Calm Calm - N/A   Clear
3:53 AM 33.1 °F 30.9 °F 92% 30.19 in 8.0 mi Calm Calm - N/A   Clear
4:53 AM 34.0 °F 32.0 °F 92% 30.17 in 9.0 mi Calm Calm - N/A   Partly Cloudy
5:53 AM 36.0 °F 34.0 °F 93% 30.18 in 9.0 mi Calm Calm - N/A   Overcast
6:53 AM 37.0 °F 35.1 °F 93% 30.17 in 8.0 mi Calm Calm - N/A   Scattered Clouds
7:53 AM 37.0 °F 35.1 °F 93% 30.18 in 7.0 mi Calm Calm - N/A   Overcast
8:53 AM 44.1 °F 39.0 °F 82% 30.19 in 9.0 mi Calm Calm - N/A   Overcast
9:53 AM 48.0 °F 39.0 °F 71% 30.18 in 8.0 mi Calm Calm - N/A   Overcast
10:53 AM 51.1 °F 39.9 °F 66% 30.17 in 8.0 mi Calm Calm - N/A   Overcast
11:53 AM 54.0 °F 41.0 °F 62% 30.16 in 8.0 mi Calm Calm - N/A   Overcast
12:53 PM 55.9 °F 39.9 °F 55% 30.14 in 10.0 mi Calm Calm - N/A   Overcast
1:53 PM 57.9 °F 39.0 °F 49% 30.11 in 9.0 mi Calm Calm - 0.00 in Rain Light Rain
2:53 PM 61.0 °F 35.1 °F 38% 30.10 in 10.0 mi East 4.6 mph - 0.00 in   Partly Cloudy
3:53 PM 57.9 °F 37.0 °F 46% 30.09 in 10.0 mi Calm Calm - N/A   Mostly Cloudy
4:53 PM 57.0 °F 36.0 °F 45% 30.09 in 10.0 mi Calm Calm - N/A   Overcast
5:53 PM 54.0 °F 37.0 °F 53% 30.10 in 10.0 mi Calm Calm - N/A   Overcast
6:53 PM 52.0 °F 39.0 °F 61% 30.12 in 10.0 mi Calm Calm - N/A   Overcast
7:53 PM 52.0 °F 39.9 °F 63% 30.13 in 10.0 mi Calm Calm - N/A   Overcast
8:53 PM 51.1 °F 41.0 °F 68% 30.14 in 10.0 mi Calm Calm - N/A   Overcast
9:53 PM 50.0 °F 41.0 °F 71% 30.14 in 10.0 mi Calm Calm - N/A   Overcast
10:53 PM 50.0 °F 39.0 °F 66% 30.14 in 10.0 mi Calm Calm - N/A   Overcast
11:53 PM 44.1 °F 37.9 °F 79% 30.14 in 10.0 mi Calm Calm - N/A   Mostly Cloudy